Meteo18 Weather Cam more information Meteo18 Weather Cam


Thunder radar more information blitzortung!


Rain radar more information rain snow radar



Select another period ( hide this area )

Units Period Custom range Directly to
Metric English Both
Daily Weekly Monthly Yearly
use both date-selectors for a custom range
previous Day
With this date

WeatherUnderground graphs for this period ( click here )


Daily Summary for Wednesday 12 December 2018
Time Temp. ( °C ) Dew pt. ( °C ) Wind ( km/h ) from Gust ( km/h ) Pressure ( hPa ) Humid.( % ) Rainrate ( cm )
High2,9 0,6 11,1 NE ( 125/246 ) 12,9 1023,6 97 0,30
Average-0,5 -1,1 1,5 Calm #95/163 3,5 1022,0 96 0,60
Low-1,6 -2,0 -   0,0 1019,9 85 -
Daily Tabular details for Wednesday 12 December 2018
Time Temp. ( °C ) Dew pt. ( °C ) Wind ( km/h ) from Gust ( km/h ) Pressure ( hPa ) Humid.( % ) Rainrate ( cm )
00:04 -0,2 -0,6   Calm   1023,2 97 -
00:08 -0,3 -0,7   Calm   1023,2 97 -
00:14 -0,3 -0,7   Calm   1023,2 97 -
00:18 -0,2 -0,6   Calm   1023,2 97 -
00:24 -0,2 -0,6   Calm   1023,6 97 -
00:28 0,0 -0,4   Calm   1023,6 97 -
00:34 0,2 -0,2 1,4 East 1,6 1023,6 97 -
00:38 0,2 -0,2   Calm 1,6 1023,2 97 -
00:44 0,2 -0,2   Calm   1023,2 97 -
00:48 0,2 -0,2   Calm   1023,2 97 -
00:52 0,2 -0,2   Calm 1,6 1023,2 97 -
00:59 0,0 -0,4   Calm   1023,2 97 -
01:03 -0,1 -0,5   Calm   1023,2 97 -
01:09 -0,2 -0,6   Calm   1023,2 97 -
01:13 -0,2 -0,6   Calm 1,6 1023,2 97 -
01:19 -0,1 -0,5   Calm 1,6 1023,2 97 -
01:23 -0,2 -0,6 4,7 NE 4,8 1023,2 97 -
01:29 -0,2 -0,6   Calm 3,2 1023,2 97 -
01:33 -0,3 -0,7   Calm 3,2 1023,2 97 -
01:39 -0,3 -0,7   Calm 1,6 1023,2 97 -
01:43 -0,3 -0,7   Calm 1,6 1023,2 97 -
01:49 -0,3 -0,7   Calm   1023,2 97 -
01:53 -0,3 -0,7   Calm   1023,2 97 -
01:59 -0,4 -0,8   Calm   1022,9 97 -
02:03 -0,4 -0,8   Calm   1022,9 97 -
02:09 -0,4 -0,8   Calm   1022,9 97 -
02:13 -0,4 -0,8   Calm 3,2 1022,9 97 -
02:19 -0,4 -0,8   Calm   1022,9 97 -
02:23 -0,4 -0,8   Calm 1,6 1022,9 97 -
02:29 -0,4 -0,8   Calm 1,6 1022,9 97 -
02:33 -0,4 -0,8   Calm   1022,9 97 -
02:39 -0,5 -0,9   Calm   1022,9 97 -
02:43 -0,5 -0,9   Calm 1,6 1022,9 97 -
02:49 -0,6 -1,0   Calm 1,6 1023,2 97 -
02:53 -0,6 -1,0   Calm   1022,9 97 -
02:59 -0,6 -1,0   Calm   1022,9 97 -
03:03 -0,6 -1,0   Calm 1,6 1022,9 97 -
03:09 -0,7 -1,1   Calm   1023,2 97 -
03:13 -0,8 -1,2   Calm   1023,2 97 -
03:19 -0,8 -1,2   Calm 1,6 1023,2 97 -
03:23 -0,8 -1,2   Calm   1023,2 97 -
03:27 -0,9 -1,3   Calm   1022,9 97 -
03:34 -0,9 -1,3 3,2 NE 3,2 1022,9 97 -
03:38 -0,9 -1,3   Calm 1,6 1022,9 97 -
03:44 -0,9 -1,3   Calm 3,2 1022,6 97 -
03:48 -0,9 -1,3 1,4 ENE 3,2 1022,6 97 -
03:54 -1,0 -1,4   Calm 1,6 1022,6 97 -
03:58 -1,0 -1,4   Calm 1,6 1022,6 97 -
04:04 -1,0 -1,4   Calm   1022,6 97 -
04:08 -1,0 -1,4   Calm 1,6 1022,6 97 -
04:14 -1,1 -1,5   Calm 1,6 1022,6 97 -
04:18 -1,1 -1,5 1,4 NE 3,2 1022,6 97 -
04:24 -1,1 -1,5   Calm 1,6 1022,2 97 -
04:28 -1,2 -1,6 1,4 NE 3,2 1022,2 97 -
04:34 -1,2 -1,6   Calm 3,2 1022,2 97 -
04:38 -1,2 -1,6 1,4 NNE 1,6 1022,2 97 -
04:44 -1,2 -1,6   Calm 3,2 1022,2 97 -
04:48 -1,3 -1,7   Calm   1022,2 97 -
04:54 -1,3 -1,7   Calm 1,6 1022,2 97 -
04:58 -1,3 -1,7   Calm 1,6 1021,9 97 -
05:04 -1,3 -1,7   Calm 1,6 1021,9 97 -
05:08 -1,3 -1,7   Calm 1,6 1021,9 97 -
05:14 -1,3 -1,7 1,4 NE 1,6 1021,9 97 -
05:18 -1,3 -1,7 1,4 NE 4,8 1021,9 97 -
05:24 -1,4 -1,8 4,7 NE 9,7 1021,6 97 -
05:28 -1,4 -1,8 4,7 ENE 8,0 1021,6 97 -
05:34 -1,5 -1,9   Calm 6,4 1021,6 97 -
05:38 -1,5 -1,9   Calm   1021,6 97 -
05:44 -1,5 -1,9   Calm   1021,6 97 -
05:48 -1,6 -2,0   Calm 1,6 1021,6 97 -
05:54 -1,6 -2,0   Calm   1021,6 97 -
05:58 -1,6 -2,0   Calm 1,6 1021,2 97 -
06:04 -1,4 -1,8   Calm   1021,6 97 -
06:08 -1,4 -1,8   Calm 1,6 1021,6 97 -
06:12 -1,4 -1,8 1,4 East 3,2 1021,6 97 -
06:19 -1,3 -1,7 1,4 NE 3,2 1021,6 97 -
06:23 -1,3 -1,7   Calm 3,2 1021,6 97 -
06:29 -1,4 -1,8 1,4 NE 1,6 1021,6 97 -
06:33 -1,4 -1,8   Calm 1,6 1021,6 97 -
06:39 -1,4 -1,8   Calm   1021,6 97 -
06:43 -1,5 -1,9   Calm   1021,6 97 -
06:49 -1,5 -1,9   Calm   1021,6 97 -
06:53 -1,5 -1,9   Calm   1021,6 97 -
06:59 -1,5 -1,9   Calm 1,6 1021,6 97 -
07:03 -1,4 -1,8   Calm   1021,6 97 -
07:09 -1,4 -1,8   Calm 1,6 1021,6 97 -
07:13 -1,4 -1,8 1,4 NE 4,8 1021,6 97 -
07:19 -1,4 -1,8   Calm 1,6 1021,6 97 -
07:23 -1,4 -1,8   Calm 1,6 1021,6 97 -
07:29 -1,4 -1,8   Calm   1021,6 97 -
07:33 -1,4 -1,8   Calm 1,6 1021,6 97 -
07:39 -1,4 -1,8   Calm 1,6 1021,9 97 -
07:43 -1,4 -1,8   Calm 1,6 1021,9 97 -
07:49 -1,3 -1,7 1,4 NE 1,6 1021,6 97 -
07:53 -1,3 -1,7   Calm 4,8 1021,9 97 -
07:59 -1,3 -1,7   Calm   1021,9 97 -
08:03 -1,3 -1,7 1,4 NNE 1,6 1021,9 97 -
08:09 -1,4 -1,8   Calm   1021,6 97 -
08:13 -1,4 -1,8   Calm 1,6 1021,6 97 -
08:19 -1,4 -1,8 1,4 NNE 3,2 1021,6 97 -
08:23 -1,4 -1,8   Calm   1021,9 97 -
08:29 -1,6 -2,0   Calm   1021,6 97 -
08:33 -1,6 -2,0   Calm   1021,6 97 -
08:39 -1,6 -2,0 1,4 NNE 3,2 1021,6 97 -
08:43 -1,6 -2,0 1,4 NE 3,2 1021,6 97 -
08:49 -1,4 -1,8 1,4 NE 6,4 1021,9 97 -
08:53 -1,4 -1,8 1,4 NE 6,4 1021,9 97 -
08:59 -1,3 -1,7 6,4 NNE 8,0 1021,6 97 -
09:03 -1,3 -1,7 7,9 NE 8,0 1021,6 97 -
09:09 -1,3 -1,7 1,4 NE 8,0 1021,6 97 -
09:13 -1,3 -1,7 4,7 NNE 6,4 1021,6 97 -
09:19 -1,2 -1,6   Calm 3,2 1021,6 97 -
09:23 -1,1 -1,5   Calm 1,6 1021,9 97 -
09:29 -1,1 -1,5   Calm   1021,9 97 -
09:33 -1,1 -1,5   Calm 1,6 1021,9 97 -
09:39 -1,1 -1,5 1,4 NE 3,2 1021,9 97 -
09:43 -1,1 -1,5 6,4 NNE 6,4 1021,9 97 -
09:49 -1,1 -1,5 3,2 NE 6,4 1021,6 97 -
09:53 -1,1 -1,5 1,4 NE 4,8 1021,6 97 -
09:59 -1,0 -1,4 6,4 NNE 8,0 1021,6 97 -
10:03 -0,9 -1,3 4,7 NNE 9,7 1021,9 97 -
10:09 -0,9 -1,3 4,7 NNE 6,4 1021,9 97 -
10:13 -0,9 -1,3 1,4 NNE 4,8 1021,6 97 -
10:19 -0,8 -1,2 1,4 NE 3,2 1021,6 97 -
10:23 -0,8 -1,2 1,4 NE 1,6 1021,9 97 -
10:29 -0,7 -1,1   Calm 4,8 1021,9 97 -
10:33 -0,7 -1,1   Calm 4,8 1021,9 97 -
10:39 -0,7 -1,1 3,2 NNE 8,0 1021,9 97 -
10:43 -0,6 -1,0 3,2 NE 4,8 1021,9 97 -
10:49 -0,6 -1,0 3,2 NNE 6,4 1021,9 97 -
10:53 -0,5 -0,9 1,4 NE 3,2 1021,9 97 -
10:59 -0,5 -0,9 1,4 ENE 4,8 1021,6 97 -
11:03 -0,4 -0,8 3,2 NNE 3,2 1021,6 97 -
11:09 -0,4 -0,8 1,4 North 1,6 1021,6 97 -
11:13 -0,4 -0,8   Calm   1021,6 97 -
11:19 -0,3 -0,7 1,4 NE 1,6 1021,6 97 -
11:23 -0,3 -0,7   Calm 1,6 1021,6 97 -
11:29 -0,2 -0,6 3,2 NNE 4,8 1021,6 97 -
11:33 -0,1 -0,5   Calm 6,4 1021,6 97 -
11:39 0,2 -0,2 1,4 ENE 6,4 1021,6 97 -
11:43 0,4 0,0 3,2 NE 4,8 1021,2 97 -
11:49 0,5 0,1 3,2 NE 9,7 1021,2 97 -
11:53 0,6 0,0   Calm 9,7 1021,2 96 -
11:59 0,7 0,1 6,4 North 9,7 1021,2 96 -
12:03 0,8 0,1 9,7 NE 9,7 1021,2 95 -
12:09 1,0 0,1 4,7 ENE 6,4 1020,9 94 -
12:13 1,2 0,2 4,7 NE 8,0 1020,9 93 -
12:19 1,3 0,1 4,7 NE 11,3 1020,9 92 0,30
12:23 1,4 0,1 7,9 ENE 9,7 1020,9 91 0,30
12:29 1,8 0,5 3,2 ENE 11,3 1020,5 91 0,30
12:33 1,9 0,4 4,7 NE 11,3 1020,5 90 0,30
12:39 2,1 0,5 6,4 NE 9,7 1020,5 89 0,30
12:43 2,1 0,3 6,4 ENE 12,9 1020,5 88 0,30
12:49 2,0 0,1 4,7 NE 11,3 1020,5 87 0,30
12:53 2,1 0,3 9,7 NE 12,9 1020,5 88 0,30
12:59 2,0 0,1 6,4 NE 11,3 1020,2 87 0,30
13:03 2,0 0,2 3,2 East 9,7 1020,5 88 0,30
13:09 2,1 0,3 4,7 NE 9,7 1020,2 88 0,30
13:13 2,2 0,3 7,9 NE 12,9 1020,2 87 0,30
13:19 2,3 0,0 6,4 ENE 12,9 1020,2 85 -
13:23 2,4 0,1 3,2 NE 9,7 1019,9 85 -
13:27 2,7 0,4 4,7 ENE 12,9 1019,9 85 -
13:33 2,9 0,6 11,1 ENE 11,3 1019,9 85 -
Daily Summary for Wednesday 12 December 2018
Time Temp. ( °C ) Dew pt. ( °C ) Wind ( km/h ) from Gust ( km/h ) Pressure ( hPa ) Humid.( % ) Rainrate ( cm )
High2,9 0,6 11,1 NE ( 125/246 ) 12,9 1023,6 97 0,30
Average-0,5 -1,1 1,5 Calm #95/163 3,5 1022,0 96 0,60
Low-1,6 -2,0 -   0,0 1019,9 85 -
Daily Tabular details for Wednesday 12 December 2018
Time Temp. ( °C ) Dew pt. ( °C ) Wind ( km/h ) from Gust ( km/h ) Pressure ( hPa ) Humid.( % ) Rainrate ( cm )
00:04 -0,2 -0,6   Calm   1023,2 97 -
00:08 -0,3 -0,7   Calm   1023,2 97 -
00:14 -0,3 -0,7   Calm   1023,2 97 -
00:18 -0,2 -0,6   Calm   1023,2 97 -
00:24 -0,2 -0,6   Calm   1023,6 97 -
00:28 0,0 -0,4   Calm   1023,6 97 -
00:34 0,2 -0,2 1,4 East 1,6 1023,6 97 -
00:38 0,2 -0,2   Calm 1,6 1023,2 97 -
00:44 0,2 -0,2   Calm   1023,2 97 -
00:48 0,2 -0,2   Calm   1023,2 97 -
00:52 0,2 -0,2   Calm 1,6 1023,2 97 -
00:59 0,0 -0,4   Calm   1023,2 97 -
01:03 -0,1 -0,5   Calm   1023,2 97 -
01:09 -0,2 -0,6   Calm   1023,2 97 -
01:13 -0,2 -0,6   Calm 1,6 1023,2 97 -
01:19 -0,1 -0,5   Calm 1,6 1023,2 97 -
01:23 -0,2 -0,6 4,7 NE 4,8 1023,2 97 -
01:29 -0,2 -0,6   Calm 3,2 1023,2 97 -
01:33 -0,3 -0,7   Calm 3,2 1023,2 97 -
01:39 -0,3 -0,7   Calm 1,6 1023,2 97 -
01:43 -0,3 -0,7   Calm 1,6 1023,2 97 -
01:49 -0,3 -0,7   Calm   1023,2 97 -
01:53 -0,3 -0,7   Calm   1023,2 97 -
01:59 -0,4 -0,8   Calm   1022,9 97 -
02:03 -0,4 -0,8   Calm   1022,9 97 -
02:09 -0,4 -0,8   Calm   1022,9 97 -
02:13 -0,4 -0,8   Calm 3,2 1022,9 97 -
02:19 -0,4 -0,8   Calm   1022,9 97 -
02:23 -0,4 -0,8   Calm 1,6 1022,9 97 -
02:29 -0,4 -0,8   Calm 1,6 1022,9 97 -
02:33 -0,4 -0,8   Calm   1022,9 97 -
02:39 -0,5 -0,9   Calm   1022,9 97 -
02:43 -0,5 -0,9   Calm 1,6 1022,9 97 -
02:49 -0,6 -1,0   Calm 1,6 1023,2 97 -
02:53 -0,6 -1,0   Calm   1022,9 97 -
02:59 -0,6 -1,0   Calm   1022,9 97 -
03:03 -0,6 -1,0   Calm 1,6 1022,9 97 -
03:09 -0,7 -1,1   Calm   1023,2 97 -
03:13 -0,8 -1,2   Calm   1023,2 97 -
03:19 -0,8 -1,2   Calm 1,6 1023,2 97 -
03:23 -0,8 -1,2   Calm   1023,2 97 -
03:27 -0,9 -1,3   Calm   1022,9 97 -
03:34 -0,9 -1,3 3,2 NE 3,2 1022,9 97 -
03:38 -0,9 -1,3   Calm 1,6 1022,9 97 -
03:44 -0,9 -1,3   Calm 3,2 1022,6 97 -
03:48 -0,9 -1,3 1,4 ENE 3,2 1022,6 97 -
03:54 -1,0 -1,4   Calm 1,6 1022,6 97 -
03:58 -1,0 -1,4   Calm 1,6 1022,6 97 -
04:04 -1,0 -1,4   Calm   1022,6 97 -
04:08 -1,0 -1,4   Calm 1,6 1022,6 97 -
04:14 -1,1 -1,5   Calm 1,6 1022,6 97 -
04:18 -1,1 -1,5 1,4 NE 3,2 1022,6 97 -
04:24 -1,1 -1,5   Calm 1,6 1022,2 97 -
04:28 -1,2 -1,6 1,4 NE 3,2 1022,2 97 -
04:34 -1,2 -1,6   Calm 3,2 1022,2 97 -
04:38 -1,2 -1,6 1,4 NNE 1,6 1022,2 97 -
04:44 -1,2 -1,6   Calm 3,2 1022,2 97 -
04:48 -1,3 -1,7   Calm   1022,2 97 -
04:54 -1,3 -1,7   Calm 1,6 1022,2 97 -
04:58 -1,3 -1,7   Calm 1,6 1021,9 97 -
05:04 -1,3 -1,7   Calm 1,6 1021,9 97 -
05:08 -1,3 -1,7   Calm 1,6 1021,9 97 -
05:14 -1,3 -1,7 1,4 NE 1,6 1021,9 97 -
05:18 -1,3 -1,7 1,4 NE 4,8 1021,9 97 -
05:24 -1,4 -1,8 4,7 NE 9,7 1021,6 97 -
05:28 -1,4 -1,8 4,7 ENE 8,0 1021,6 97 -
05:34 -1,5 -1,9   Calm 6,4 1021,6 97 -
05:38 -1,5 -1,9   Calm   1021,6 97 -
05:44 -1,5 -1,9   Calm   1021,6 97 -
05:48 -1,6 -2,0   Calm 1,6 1021,6 97 -
05:54 -1,6 -2,0   Calm   1021,6 97 -
05:58 -1,6 -2,0   Calm 1,6 1021,2 97 -
06:04 -1,4 -1,8   Calm   1021,6 97 -
06:08 -1,4 -1,8   Calm 1,6 1021,6 97 -
06:12 -1,4 -1,8 1,4 East 3,2 1021,6 97 -
06:19 -1,3 -1,7 1,4 NE 3,2 1021,6 97 -
06:23 -1,3 -1,7   Calm 3,2 1021,6 97 -
06:29 -1,4 -1,8 1,4 NE 1,6 1021,6 97 -
06:33 -1,4 -1,8   Calm 1,6 1021,6 97 -
06:39 -1,4 -1,8   Calm   1021,6 97 -
06:43 -1,5 -1,9   Calm   1021,6 97 -
06:49 -1,5 -1,9   Calm   1021,6 97 -
06:53 -1,5 -1,9   Calm   1021,6 97 -
06:59 -1,5 -1,9   Calm 1,6 1021,6 97 -
07:03 -1,4 -1,8   Calm   1021,6 97 -
07:09 -1,4 -1,8   Calm 1,6 1021,6 97 -
07:13 -1,4 -1,8 1,4 NE 4,8 1021,6 97 -
07:19 -1,4 -1,8   Calm 1,6 1021,6 97 -
07:23 -1,4 -1,8   Calm 1,6 1021,6 97 -
07:29 -1,4 -1,8   Calm   1021,6 97 -
07:33 -1,4 -1,8   Calm 1,6 1021,6 97 -
07:39 -1,4 -1,8   Calm 1,6 1021,9 97 -
07:43 -1,4 -1,8   Calm 1,6 1021,9 97 -
07:49 -1,3 -1,7 1,4 NE 1,6 1021,6 97 -
07:53 -1,3 -1,7   Calm 4,8 1021,9 97 -
07:59 -1,3 -1,7   Calm   1021,9 97 -
08:03 -1,3 -1,7 1,4 NNE 1,6 1021,9 97 -
08:09 -1,4 -1,8   Calm   1021,6 97 -
08:13 -1,4 -1,8   Calm 1,6 1021,6 97 -
08:19 -1,4 -1,8 1,4 NNE 3,2 1021,6 97 -
08:23 -1,4 -1,8   Calm   1021,9 97 -
08:29 -1,6 -2,0   Calm   1021,6 97 -
08:33 -1,6 -2,0   Calm   1021,6 97 -
08:39 -1,6 -2,0 1,4 NNE 3,2 1021,6 97 -
08:43 -1,6 -2,0 1,4 NE 3,2 1021,6 97 -
08:49 -1,4 -1,8 1,4 NE 6,4 1021,9 97 -
08:53 -1,4 -1,8 1,4 NE 6,4 1021,9 97 -
08:59 -1,3 -1,7 6,4 NNE 8,0 1021,6 97 -
09:03 -1,3 -1,7 7,9 NE 8,0 1021,6 97 -
09:09 -1,3 -1,7 1,4 NE 8,0 1021,6 97 -
09:13 -1,3 -1,7 4,7 NNE 6,4 1021,6 97 -
09:19 -1,2 -1,6   Calm 3,2 1021,6 97 -
09:23 -1,1 -1,5   Calm 1,6 1021,9 97 -
09:29 -1,1 -1,5   Calm   1021,9 97 -
09:33 -1,1 -1,5   Calm 1,6 1021,9 97 -
09:39 -1,1 -1,5 1,4 NE 3,2 1021,9 97 -
09:43 -1,1 -1,5 6,4 NNE 6,4 1021,9 97 -
09:49 -1,1 -1,5 3,2 NE 6,4 1021,6 97 -
09:53 -1,1 -1,5 1,4 NE 4,8 1021,6 97 -
09:59 -1,0 -1,4 6,4 NNE 8,0 1021,6 97 -
10:03 -0,9 -1,3 4,7 NNE 9,7 1021,9 97 -
10:09 -0,9 -1,3 4,7 NNE 6,4 1021,9 97 -
10:13 -0,9 -1,3 1,4 NNE 4,8 1021,6 97 -
10:19 -0,8 -1,2 1,4 NE 3,2 1021,6 97 -
10:23 -0,8 -1,2 1,4 NE 1,6 1021,9 97 -
10:29 -0,7 -1,1   Calm 4,8 1021,9 97 -
10:33 -0,7 -1,1   Calm 4,8 1021,9 97 -
10:39 -0,7 -1,1 3,2 NNE 8,0 1021,9 97 -
10:43 -0,6 -1,0 3,2 NE 4,8 1021,9 97 -
10:49 -0,6 -1,0 3,2 NNE 6,4 1021,9 97 -
10:53 -0,5 -0,9 1,4 NE 3,2 1021,9 97 -
10:59 -0,5 -0,9 1,4 ENE 4,8 1021,6 97 -
11:03 -0,4 -0,8 3,2 NNE 3,2 1021,6 97 -
11:09 -0,4 -0,8 1,4 North 1,6 1021,6 97 -
11:13 -0,4 -0,8   Calm   1021,6 97 -
11:19 -0,3 -0,7 1,4 NE 1,6 1021,6 97 -
11:23 -0,3 -0,7   Calm 1,6 1021,6 97 -
11:29 -0,2 -0,6 3,2 NNE 4,8 1021,6 97 -
11:33 -0,1 -0,5   Calm 6,4 1021,6 97 -
11:39 0,2 -0,2 1,4 ENE 6,4 1021,6 97 -
11:43 0,4 0,0 3,2 NE 4,8 1021,2 97 -
11:49 0,5 0,1 3,2 NE 9,7 1021,2 97 -
11:53 0,6 0,0   Calm 9,7 1021,2 96 -
11:59 0,7 0,1 6,4 North 9,7 1021,2 96 -
12:03 0,8 0,1 9,7 NE 9,7 1021,2 95 -
12:09 1,0 0,1 4,7 ENE 6,4 1020,9 94 -
12:13 1,2 0,2 4,7 NE 8,0 1020,9 93 -
12:19 1,3 0,1 4,7 NE 11,3 1020,9 92 0,30
12:23 1,4 0,1 7,9 ENE 9,7 1020,9 91 0,30
12:29 1,8 0,5 3,2 ENE 11,3 1020,5 91 0,30
12:33 1,9 0,4 4,7 NE 11,3 1020,5 90 0,30
12:39 2,1 0,5 6,4 NE 9,7 1020,5 89 0,30
12:43 2,1 0,3 6,4 ENE 12,9 1020,5 88 0,30
12:49 2,0 0,1 4,7 NE 11,3 1020,5 87 0,30
12:53 2,1 0,3 9,7 NE 12,9 1020,5 88 0,30
12:59 2,0 0,1 6,4 NE 11,3 1020,2 87 0,30
13:03 2,0 0,2 3,2 East 9,7 1020,5 88 0,30
13:09 2,1 0,3 4,7 NE 9,7 1020,2 88 0,30
13:13 2,2 0,3 7,9 NE 12,9 1020,2 87 0,30
13:19 2,3 0,0 6,4 ENE 12,9 1020,2 85 -
13:23 2,4 0,1 3,2 NE 9,7 1019,9 85 -
13:27 2,7 0,4 4,7 ENE 12,9 1019,9 85 -
13:33 2,9 0,6 11,1 ENE 11,3 1019,9 85 -

Download your copy of this data-set  here

Our weather-data as stored at Weather Underground. Script developed by Jim McMurry. Adapted for the template by Leuven-Template.eu

You find our weather info also at:

Weather Underground

Equipment we use:

Weather-station
Davis Vue

Weather-program
Meteobridge

Weather-server
Raspberry PI 2 B+

Provider
1 and 1

Davis Vue

Meteobridge

Raspberry PI 2 B+

1 and 1